[[{"header":{"parameterUnit":"m.s-1","parameterCategory":1,"la1":30.2991,"la2":30.254,"lo1":-89.0895,"lo2":-89.0444,"dy":0.0017,"dx":0.0017,"nx":28,"ny":28,"refTime":"2025-03-26T03:00:00:Z","depth":0,"parameterNumber":2,"parameterNumberName":"U-component_of_WINDS"},"data":[0,0,0,0,0,0,0,0,0,0,0,0,0,0,0,0,0,0,0,0,0,0,0,0,0,0,0,0,0,0,0,0,0,0,0,0,0,0,0,0,0,0,0,0,0,0,0,0,0,0,0,0,0,0,0,0,0,0,-0.2333,-0.2333,0,-0.2289,-0.2288,-0.2288,-0.228,-0.228,-0.228,-0.2281,-0.2232,-0.223,-0.2228,0,0,0,0,0,0,0,0,0,0,0,0,0,-0.2409,-0.2408,-0.2333,-0.2333,-0.2332,-0.2289,-0.2288,-0.2288,-0.228,-0.228,-0.2281,-0.2281,-0.2232,-0.223,-0.2228,0,0,0,0,0,0,0,0,0,0,0,0,0,-0.2372,-0.2407,-0.2333,-0.2323,-0.2322,-0.2289,-0.2288,-0.2288,-0.228,-0.228,-0.2281,-0.2281,-0.2233,-0.223,-0.2228,-0.2201,0,0,-0.222,-0.2219,0,0,0,0,0,0,0,0,-0.2374,-0.2369,-0.2325,-0.2324,-0.2322,-0.229,-0.2297,-0.2258,-0.2279,-0.2295,-0.2281,-0.2281,-0.225,-0.2247,-0.2237,-0.2199,-0.2197,-0.222,-0.2219,-0.2217,-0.2217,0,0,0,0,0,0,0,-0.2376,-0.2371,-0.2315,-0.2324,-0.2323,-0.232,-0.2315,-0.229,-0.227,-0.2294,-0.2293,-0.2288,-0.225,-0.2239,-0.2236,-0.2196,-0.222,-0.2218,-0.2216,-0.2215,-0.2137,-0.2137,0,0,0,0,0,0,-0.2381,-0.2373,-0.2317,-0.2314,-0.235,-0.2318,-0.2313,-0.23,-0.227,-0.2267,-0.2288,-0.2288,-0.2243,-0.2239,-0.2234,-0.2203,-0.2217,-0.2215,-0.2214,-0.2138,-0.2137,-0.2137,0,0,0,0,0,0,-0.2383,-0.2376,-0.2319,-0.2343,-0.2336,-0.2316,-0.2302,-0.2299,-0.2288,-0.2266,-0.2262,-0.2281,-0.2244,-0.2237,-0.221,-0.2201,-0.2214,-0.2212,-0.2139,-0.2138,-0.2137,-0.2139,0,0,0,0,0,0,-0.2385,-0.2377,-0.2367,-0.2343,-0.2335,-0.2296,-0.2301,-0.2297,-0.2285,-0.2284,-0.2258,-0.2255,-0.2243,-0.2214,-0.2208,-0.2198,-0.221,-0.2139,-0.2138,-0.2137,-0.2139,-0.2138,-0.2137,0,0,0,0,0,-0.2388,-0.2367,-0.2366,-0.2359,-0.2322,-0.2296,-0.2291,-0.2279,-0.2284,-0.2273,-0.226,-0.2255,-0.2203,-0.2212,-0.2204,-0.2193,-0.214,-0.2138,-0.2137,-0.214,-0.2138,-0.2137,0,0,0,0,0,0,-0.2388,-0.2364,-0.2362,-0.2334,-0.2317,-0.2294,-0.2281,-0.2277,-0.2258,-0.2258,-0.2244,-0.2238,-0.2213,-0.22,-0.221,-0.2167,-0.2172,-0.2169,-0.2176,-0.2175,-0.2173,-0.2177,-0.2208,0,0,0,0,0,-0.2385,-0.2367,-0.2347,-0.2324,-0.2316,-0.23,-0.2288,-0.2281,-0.2263,-0.2255,-0.2239,-0.222,-0.22,-0.2187,-0.2166,-0.2138,-0.2133,-0.2127,-0.2126,-0.2125,-0.2122,-0.2109,-0.2106,-0.2132,-0.2132,-0.2132,0,0,-0.2378,-0.2363,-0.2352,-0.2323,-0.231,-0.2291,-0.2294,-0.2273,-0.2259,-0.2251,-0.2226,-0.2214,-0.2192,-0.2165,-0.2152,-0.2154,-0.2115,-0.2123,-0.2123,-0.2121,-0.2107,-0.2105,-0.2103,-0.2131,-0.2132,-0.2132,0,0,-0.2356,-0.2342,-0.2323,-0.231,-0.229,-0.228,-0.2276,-0.2254,-0.2247,-0.2221,-0.2216,-0.2199,-0.2163,-0.2149,-0.2137,-0.2114,-0.211,-0.2108,-0.2101,-0.2087,-0.2085,-0.2084,-0.2076,-0.2074,-0.2105,-0.2105,-0.2105,0,-0.2349,-0.2322,-0.2313,-0.2294,-0.2282,-0.2277,-0.2257,-0.2245,-0.2218,-0.221,-0.2213,-0.2171,-0.2156,-0.2126,-0.2121,-0.2111,-0.2106,-0.211,-0.2087,-0.2085,-0.2083,-0.2076,-0.2073,-0.2105,-0.2105,-0.2105,-0.2105,0,-0.2316,-0.2297,-0.2284,-0.2261,-0.2248,-0.2228,-0.2216,-0.2204,-0.2199,-0.219,-0.2165,-0.2147,-0.2125,-0.2117,-0.2111,-0.2088,-0.209,-0.209,-0.2094,-0.208,-0.2074,-0.2071,-0.2105,-0.2105,-0.2105,-0.2105,0,0,-0.229,-0.2266,-0.2261,-0.2252,-0.2231,-0.2216,-0.2197,-0.2177,-0.2167,-0.215,-0.2135,-0.2107,-0.2108,-0.2094,-0.2087,-0.2075,-0.206,-0.2077,-0.2076,-0.2075,-0.2035,-0.2035,-0.2032,-0.2058,-0.2058,-0.2057,-0.2037,0,-0.2266,-0.2234,-0.2226,-0.2198,-0.2182,-0.2178,-0.2162,-0.2148,-0.2139,-0.2123,-0.2113,-0.2094,-0.2096,-0.2088,-0.2077,-0.2065,-0.2052,-0.2066,-0.2043,-0.2042,-0.2049,-0.2029,-0.2028,-0.201,-0.2034,-0.2034,-0.2034,0,-0.2233,-0.2218,-0.2189,-0.2173,-0.2166,-0.2152,-0.2134,-0.2119,-0.2104,-0.2098,-0.2085,-0.208,-0.2061,-0.2067,-0.2041,-0.205,-0.2041,-0.2034,-0.2033,-0.203,-0.2037,-0.2026,-0.2004,-0.2001,-0.2029,-0.2029,-0.203,0,-0.2219,-0.2191,-0.2171,-0.2163,-0.2144,-0.2134,-0.2126,-0.2111,-0.21,-0.2084,-0.2078,-0.2059,-0.2049,-0.2036,-0.2026,-0.2031,-0.2001,-0.2006,-0.1996,-0.1996,-0.1989,-0.1989,-0.1966,-0.1983,-0.1983,-0.1983,-0.1983,0,-0.2193,-0.2176,-0.2165,-0.2152,-0.2133,-0.2125,-0.2106,-0.2098,-0.2085,-0.2071,-0.2066,-0.2053,-0.2041,-0.2026,-0.2018,-0.1999,-0.1994,-0.1989,-0.1987,-0.199,-0.199,-0.1983,-0.1984,-0.1982,-0.1982,-0.1983,-0.1983,0,-0.2173,-0.2165,-0.2143,-0.2128,-0.2124,-0.2111,-0.2097,-0.2085,-0.2078,-0.206,-0.2055,-0.2043,-0.2025,-0.2015,-0.1992,-0.1987,-0.1966,-0.1964,-0.1972,-0.1971,-0.1962,-0.1963,-0.1932,-0.1928,-0.1948,-0.1948,-0.1948,0,-0.2157,-0.2144,-0.2129,-0.212,-0.2112,-0.2097,-0.2087,-0.208,-0.2069,-0.2053,-0.2043,-0.2026,-0.2011,-0.1984,-0.1972,-0.1956,-0.1954,-0.1945,-0.1951,-0.1955,-0.1955,-0.1956,-0.1955,-0.1943,-0.1943,-0.1943,-0.1943,0,-0.213,-0.2128,-0.2114,-0.21,-0.2089,-0.2077,-0.2064,-0.2057,-0.2048,-0.2037,-0.202,-0.201,-0.1988,-0.1972,-0.1955,-0.1945,-0.1943,-0.1941,-0.1938,-0.194,-0.1945,-0.1943,-0.1969,-0.1941,-0.1942,-0.1942,-0.1942,-0.1942,-0.2112,-0.2101,-0.209,-0.2075,-0.2066,-0.2056,-0.2045,-0.2037,-0.2023,-0.2006,-0.2003,-0.1986,-0.1973,-0.195,-0.1941,-0.1927,-0.1929,-0.1924,-0.1923,-0.1922,-0.1922,-0.1948,-0.1924,-0.1924,-0.1924,-0.1924,-0.1924,0,-0.2086,-0.2079,-0.2066,-0.2051,-0.204,-0.204,-0.2028,-0.2018,-0.2004,-0.1993,-0.198,-0.1962,-0.1947,-0.1935,-0.192,-0.1911,-0.191,-0.1908,-0.1908,-0.1906,-0.1921,-0.1926,-0.1909,-0.1909,-0.1909,-0.1909,-0.1909,-0.1909,-0.207,-0.2053,-0.205,-0.2028,-0.2021,-0.2005,-0.1998,-0.1989,-0.1981,-0.1961,-0.1949,-0.1943,-0.1932,-0.1916,-0.1903,-0.19,-0.1894,-0.1892,-0.1889,-0.1903,-0.1905,-0.1906,-0.1911,-0.1891,-0.1891,-0.1875,-0.1875,-0.1875]},{"header":{"parameterUnit":"m.s-1","parameterCategory":1,"la1":30.2991,"la2":30.254,"lo1":-89.0895,"lo2":-89.0444,"dy":0.0017,"dx":0.0017,"nx":28,"ny":28,"refTime":"2025-03-26T03:00:00:Z","depth":0,"parameterNumber":3,"parameterNumberName":"V-component_of_WINDS"},"data":[0,0,0,0,0,0,0,0,0,0,0,0,0,0,0,0,0,0,0,0,0,0,0,0,0,0,0,0,0,0,0,0,0,0,0,0,0,0,0,0,0,0,0,0,0,0,0,0,0,0,0,0,0,0,0,0,0,0,2.7663,2.7662,0,2.7617,2.7616,2.7616,2.7585,2.7585,2.7585,2.7585,2.7534,2.7533,2.7532,0,0,0,0,0,0,0,0,0,0,0,0,0,2.772,2.7719,2.7663,2.7662,2.7662,2.7617,2.7616,2.7616,2.7585,2.7585,2.7585,2.7584,2.7534,2.7533,2.7532,0,0,0,0,0,0,0,0,0,0,0,0,0,2.7687,2.7719,2.7663,2.7641,2.7639,2.7617,2.7616,2.7616,2.7585,2.7585,2.7585,2.7584,2.7535,2.7533,2.7532,2.7527,0,0,2.7526,2.7526,0,0,0,0,0,0,0,0,2.7688,2.7684,2.7645,2.7642,2.764,2.7606,2.7618,2.7586,2.7585,2.7605,2.7585,2.7584,2.7558,2.7555,2.7547,2.7525,2.7523,2.7526,2.7525,2.7524,2.7524,0,0,0,0,0,0,0,2.7691,2.7686,2.7644,2.7644,2.7641,2.7632,2.7627,2.7612,2.7584,2.7604,2.7601,2.7596,2.7557,2.7548,2.7545,2.7522,2.7526,2.7525,2.7524,2.7523,2.7492,2.7492,0,0,0,0,0,0,2.7697,2.7688,2.7646,2.7643,2.7664,2.7631,2.7626,2.7617,2.7584,2.7579,2.7597,2.7595,2.7551,2.7547,2.7543,2.7535,2.7524,2.7523,2.7522,2.7492,2.7492,2.7492,0,0,0,0,0,0,2.7698,2.7694,2.7648,2.7665,2.7659,2.7631,2.7622,2.7617,2.7608,2.7579,2.7573,2.7593,2.7551,2.7546,2.7531,2.7532,2.7522,2.752,2.7492,2.7492,2.7492,2.7518,0,0,0,0,0,0,2.77,2.7694,2.7693,2.7665,2.7658,2.7638,2.7622,2.7616,2.7606,2.7603,2.7574,2.7569,2.755,2.7534,2.7529,2.753,2.7519,2.7491,2.7492,2.7492,2.7517,2.7519,2.7521,0,0,0,0,0,2.7702,2.7702,2.7693,2.7688,2.7656,2.7638,2.7633,2.7613,2.7606,2.7604,2.7585,2.757,2.7533,2.7533,2.7527,2.7527,2.7491,2.7492,2.7492,2.7516,2.7519,2.7521,0,0,0,0,0,0,2.7729,2.7698,2.7688,2.7679,2.7661,2.7633,2.763,2.7617,2.76,2.7598,2.7572,2.7566,2.7553,2.7539,2.7539,2.752,2.751,2.751,2.753,2.7533,2.7535,2.7538,2.7518,0,0,0,0,0,2.7735,2.7724,2.7696,2.769,2.7682,2.7658,2.7649,2.7635,2.7615,2.7607,2.7587,2.7568,2.7551,2.7541,2.7525,2.7515,2.7507,2.7512,2.7514,2.7516,2.7516,2.7508,2.7509,2.7494,2.7494,2.7494,0,0,2.7745,2.7726,2.772,2.7696,2.768,2.7668,2.7652,2.764,2.763,2.7605,2.759,2.7575,2.7551,2.7539,2.7532,2.7526,2.7518,2.7517,2.7519,2.7517,2.7508,2.751,2.7511,2.7494,2.7494,2.7494,0,0,2.7757,2.7742,2.7735,2.7721,2.7698,2.7682,2.768,2.7654,2.7643,2.7628,2.7608,2.7596,2.7569,2.7552,2.7541,2.7546,2.7531,2.7541,2.7552,2.7545,2.7546,2.7547,2.7547,2.7548,2.7541,2.7541,2.7541,0,2.7771,2.7754,2.7733,2.7723,2.7711,2.7689,2.7681,2.7668,2.7641,2.7633,2.7627,2.7592,2.7575,2.7557,2.7559,2.755,2.7546,2.7544,2.7548,2.7548,2.7549,2.7549,2.7549,2.7542,2.7542,2.7542,2.7542,0,2.7773,2.7761,2.7758,2.7733,2.7722,2.7713,2.7689,2.768,2.7666,2.765,2.7634,2.7613,2.7591,2.7586,2.7572,2.7566,2.7563,2.7553,2.7542,2.7552,2.7552,2.7552,2.7544,2.7544,2.7543,2.7543,0,0,2.78,2.7765,2.7764,2.7752,2.7725,2.7715,2.7704,2.7684,2.7676,2.7658,2.7647,2.7625,2.7615,2.7601,2.7585,2.7579,2.7583,2.7569,2.7568,2.7572,2.7574,2.7581,2.7582,2.7574,2.7573,2.7573,2.7575,0,2.7807,2.7788,2.7769,2.7756,2.7743,2.7722,2.7712,2.7694,2.7678,2.7665,2.7647,2.7631,2.762,2.7611,2.7604,2.7584,2.7583,2.7584,2.7561,2.7561,2.7567,2.7582,2.7589,2.7592,2.7575,2.7575,2.7575,0,2.7813,2.7797,2.7783,2.7757,2.7751,2.7743,2.7722,2.771,2.7689,2.7677,2.7662,2.7646,2.7632,2.7623,2.7602,2.7603,2.7593,2.7581,2.7581,2.7577,2.7568,2.7577,2.7593,2.7593,2.7575,2.7575,2.7575,0,2.7833,2.7808,2.7796,2.7787,2.7756,2.7751,2.7738,2.7716,2.7705,2.7687,2.7679,2.7659,2.7647,2.7631,2.7609,2.7605,2.759,2.758,2.7579,2.758,2.7576,2.7577,2.7589,2.7571,2.7571,2.7571,2.7571,0,2.7842,2.7834,2.7804,2.7797,2.7787,2.7764,2.7754,2.7739,2.772,2.7708,2.7688,2.7677,2.7649,2.7634,2.7616,2.7601,2.7596,2.7585,2.758,2.7587,2.7588,2.7579,2.7578,2.7571,2.7571,2.7571,2.7571,0,2.7863,2.7843,2.7828,2.7801,2.7794,2.7787,2.7763,2.7754,2.7738,2.7723,2.7718,2.7691,2.7672,2.7649,2.7622,2.761,2.7596,2.759,2.7604,2.7601,2.7601,2.7601,2.7608,2.7607,2.7591,2.7591,2.7591,0,2.7869,2.7863,2.7835,2.7826,2.7814,2.78,2.7789,2.7766,2.7755,2.773,2.7724,2.7704,2.7687,2.7657,2.7635,2.7614,2.7606,2.761,2.7602,2.7609,2.7604,2.7605,2.7603,2.7611,2.7611,2.7612,2.7612,0,2.7883,2.7874,2.7859,2.7841,2.7828,2.7812,2.7795,2.7789,2.7762,2.7751,2.7732,2.7719,2.7692,2.7672,2.7648,2.7633,2.7617,2.7614,2.7613,2.7619,2.7627,2.7621,2.7608,2.7614,2.7614,2.7614,2.7614,2.7614,2.7896,2.7889,2.7868,2.7852,2.7838,2.7822,2.7813,2.7795,2.778,2.7757,2.7744,2.7726,2.7703,2.767,2.7655,2.7639,2.7633,2.7631,2.7631,2.763,2.7632,2.763,2.7634,2.7634,2.7634,2.7634,2.7634,0,2.7908,2.7894,2.788,2.7857,2.7844,2.7833,2.7813,2.7802,2.7787,2.7768,2.7752,2.773,2.771,2.7686,2.7664,2.7655,2.7648,2.765,2.765,2.7647,2.7639,2.7642,2.7657,2.7657,2.7657,2.7657,2.7657,2.7657,2.7913,2.79,2.7888,2.7867,2.7852,2.7835,2.7825,2.781,2.7794,2.7771,2.7755,2.774,2.7718,2.7695,2.7676,2.7669,2.7661,2.7666,2.7657,2.7649,2.7647,2.7645,2.7648,2.7665,2.7665,2.7666,2.7666,2.7666]}]]